GW5851 Weather Reports


time (UTC)temp
C
wind
direction
speed
KPH
gust
KPH
rain 1hr
cm
rain 24hr
cm
rain mn
cm
humidity
%
barometer
mb
20260503050156 0 180 0.0 0.0 0.00 0.00 0.00 78 982.0
20260503045655 0 180 0.0 0.0 0.00 0.00 0.00 79 982.0
20260503045155 0 180 0.0 0.0 0.00 0.00 0.00 80 982.0
20260503044656 0 180 0.0 0.0 0.00 0.00 0.00 80 982.0
20260503044155 0 180 0.0 0.0 0.00 0.00 0.00 80 982.0
20260503043655 0 180 0.0 0.0 0.00 0.00 0.00 80 982.0
20260503043155 0 180 0.0 0.0 0.00 0.00 0.00 81 982.0
20260503042655 0 180 0.0 0.0 0.00 0.00 0.00 81 982.0
20260503042155 0 180 0.0 0.0 0.00 0.00 0.00 81 982.0
20260503041655 0 180 0.0 0.0 0.00 0.00 0.00 80 982.0
20260503041155 0 180 0.0 0.0 0.00 0.00 0.00 81 982.0
20260503040656 0 180 0.0 0.0 0.00 0.00 0.00 81 982.0
20260503040155 0 180 0.0 0.0 0.00 0.00 0.00 81 982.0
20260503035655 0 180 0.0 0.0 0.00 0.00 0.00 82 982.0
20260503035155 0 180 0.0 0.0 0.00 0.00 0.00 83 982.0
20260503034655 0 180 0.0 0.0 0.00 0.00 0.00 84 982.0
20260503034155 0 180 0.0 0.0 0.00 0.00 0.00 84 982.0
20260503033655 0 180 0.0 0.0 0.00 0.00 0.00 84 982.0
20260503033155 0 180 0.0 0.0 0.00 0.00 0.00 85 982.0
20260503032655 0 180 0.0 0.0 0.00 0.00 0.00 85 982.0
20260503032157 0 180 0.0 0.0 0.00 0.00 0.00 85 982.0
20260503031655 0 180 0.0 0.0 0.00 0.00 0.00 84 982.0
20260503031155 0 180 0.0 0.0 0.00 0.00 0.00 83 982.0
20260503030655 0 180 0.0 0.0 0.00 0.00 0.00 83 982.0
20260503030155 1 180 0.0 0.0 0.00 0.00 0.00 83 982.0
20260503025656 1 180 0.0 0.0 0.00 0.00 0.00 84 982.0
20260503025155 1 180 0.0 0.0 0.00 0.00 0.00 84 982.0
20260503024655 1 180 0.0 0.0 0.00 0.00 0.00 83 982.0
20260503024156 1 180 0.0 0.0 0.00 0.00 0.00 82 982.0
20260503023655 1 180 0.0 0.0 0.00 0.00 0.00 82 982.0
20260503023156 1 180 0.0 0.0 0.00 0.00 0.00 82 982.0
20260503022655 1 180 0.0 0.0 0.00 0.00 0.00 81 982.0
20260503022155 1 180 0.0 0.0 0.00 0.00 0.00 79 982.0
20260503021655 1 180 0.0 0.0 0.00 0.00 0.00 79 982.0
20260503021156 1 180 0.0 0.0 0.00 0.00 0.00 79 983.0
20260503020656 1 180 0.0 0.0 0.00 0.00 0.00 78 982.0
20260503020155 1 180 0.0 1.6 0.00 0.00 0.00 78 982.0
20260503015655 1 180 0.0 0.0 0.00 0.00 0.00 76 982.0
20260503015155 1 180 0.0 0.0 0.00 0.00 0.00 74 982.0
20260503014655 2 180 0.0 0.0 0.00 0.00 0.00 72 982.0
20260503014155 2 180 0.0 0.0 0.00 0.00 0.00 71 982.0
20260503013655 2 180 0.0 0.0 0.00 0.00 0.00 69 982.0
20260503013156 3 180 0.0 0.0 0.00 0.00 0.00 68 982.0
20260503012655 3 180 0.0 0.0 0.00 0.00 0.00 67 982.0
20260503012155 3 181 0.0 0.0 0.00 0.00 0.00 66 982.0
20260503011655 4 181 0.0 1.6 0.00 0.00 0.00 65 982.0
20260503011155 4 180 0.0 0.0 0.00 0.00 0.00 64 982.0
20260503010655 4 180 0.0 0.0 0.00 0.00 0.00 64 982.0
20260503010155 4 180 0.0 0.0 0.00 0.00 0.00 61 982.0
20260503005656 5 180 0.0 0.0 0.00 0.00 0.00 60 982.0
20260503005155 5 180 0.0 0.0 0.00 0.00 0.00 57 982.0
20260503004656 5 180 0.0 0.0 0.00 0.00 0.00 54 982.0
20260503004155 6 185 0.0 0.0 0.00 0.00 0.00 53 982.0
20260503003655 6 200 0.0 1.6 0.00 0.00 0.00 52 982.0
20260503003155 6 200 0.0 0.0 0.00 0.00 0.00 52 982.0
20260503002655 7 206 1.6 1.6 0.00 0.00 0.00 51 982.0
20260503002155 7 211 1.6 3.2 0.00 0.00 0.00 51 982.0
20260503001656 7 211 0.0 0.0 0.00 0.00 0.00 51 982.0
20260503001155 7 212 0.0 0.0 0.00 0.00 0.00 50 982.0
20260503000655 7 266 1.6 1.6 0.00 0.00 0.00 49 982.0
20260503000155 8 270 3.2 3.2 0.00 0.00 0.00 47 982.0
20260502235655 8 262 1.6 9.7 0.00 0.00 0.00 46 982.0
20260502235154 8 274 4.8 6.4 0.00 0.00 0.00 46 982.0
20260502234655 8 275 4.8 9.7 0.00 0.00 0.00 45 982.0
20260502234155 8 283 3.2 9.7 0.00 0.00 0.00 46 982.0
20260502233655 8 273 3.2 4.8 0.00 0.00 0.00 47 982.0
20260502233155 8 259 3.2 3.2 0.00 0.00 0.00 47 982.0
20260502232657 8 271 0.0 6.4 0.00 0.00 0.00 47 982.0
20260502232155 8 294 1.6 9.7 0.00 0.00 0.00 46 982.0
20260502231655 8 292 6.4 11.3 0.00 0.00 0.00 44 982.0
20260502231155 8 251 6.4 11.3 0.00 0.00 0.00 44 982.0
20260502230655 8 265 3.2 6.4 0.00 0.00 0.00 44 982.0
20260502230156 8 274 4.8 9.7 0.00 0.00 0.00 43 982.0
20260502225655 8 302 4.8 9.7 0.00 0.00 0.00 44 982.0
20260502225155 8 289 6.4 11.3 0.00 0.00 0.00 44 982.0
20260502224655 8 267 4.8 11.3 0.00 0.00 0.00 42 982.0
20260502224155 8 321 3.2 3.2 0.00 0.00 0.00 45 982.0
20260502223655 8 344 6.4 6.4 0.00 0.00 0.00 43 982.0
20260502223156 8 248 4.8 6.4 0.00 0.00 0.00 46 982.0
20260502222655 8 273 3.2 4.8 0.00 0.00 0.00 44 982.0
20260502222155 8 340 3.2 6.4 0.00 0.00 0.00 43 982.0
20260502221655 8 298 4.8 6.4 0.00 0.00 0.00 43 982.0
20260502221155 8 330 4.8 4.8 0.00 0.00 0.00 42 982.0
20260502220655 9 309 4.8 17.7 0.00 0.00 0.00 40 982.0
20260502220155 8 337 8.0 11.3 0.00 0.00 0.00 41 982.0
20260502215655 8 321 3.2 4.8 0.00 0.00 0.00 45 982.0
20260502215155 8 272 6.4 12.9 0.00 0.00 0.00 44 982.0
20260502214655 9 298 4.8 11.3 0.00 0.00 0.00 42 982.0
20260502214156 9 275 4.8 9.7 0.00 0.00 0.00 41 982.0
20260502213655 9 14 4.8 9.7 0.00 0.00 0.00 44 982.0
20260502213155 8 303 3.2 4.8 0.00 0.00 0.00 44 982.0
20260502212655 8 246 3.2 11.3 0.00 0.00 0.00 43 982.0
20260502212155 8 298 4.8 11.3 0.00 0.00 0.00 45 982.0
20260502211655 8 2 6.4 11.3 0.00 0.00 0.00 42 982.0
20260502211155 8 313 3.2 11.3 0.00 0.00 0.00 43 982.0
20260502210655 8 356 8.0 12.9 0.00 0.00 0.00 43 982.0
20260502210155 8 200 3.2 11.3 0.00 0.00 0.00 43 982.0
20260502205657 8 347 8.0 9.7 0.00 0.00 0.00 42 982.0
20260502205155 8 278 8.0 14.5 0.00 0.00 0.00 41 982.0
20260502204655 8 273 6.4 12.9 0.00 0.00 0.00 43 982.0
20260502204155 9 285 6.4 14.5 0.00 0.00 0.00 40 982.0
20260502203655 8 355 6.4 11.3 0.00 0.00 0.00 43 982.0
20260502203155 8 308 3.2 6.4 0.00 0.00 0.00 40 982.0
20260502202655 8 355 9.7 14.5 0.00 0.00 0.00 40 983.0
20260502202155 8 275 3.2 9.7 0.00 0.00 0.00 42 983.0
20260502201655 8 309 4.8 11.3 0.00 0.00 0.00 43 982.0
20260502201155 8 285 9.7 14.5 0.00 0.00 0.00 43 983.0
20260502200655 8 300 9.7 14.5 0.00 0.00 0.00 40 983.0
20260502200155 8 298 8.0 9.7 0.00 0.00 0.00 40 983.0
20260502195655 8 321 4.8 6.4 0.00 0.00 0.00 42 983.0
20260502195156 8 254 6.4 11.3 0.00 0.00 0.00 43 983.0
20260502194655 8 260 9.7 14.5 0.00 0.00 0.00 41 983.0
20260502194157 8 256 3.2 14.5 0.00 0.00 0.00 42 983.0
20260502193655 8 291 3.2 14.5 0.00 0.00 0.00 43 983.0
20260502193155 8 271 9.7 11.3 0.00 0.00 0.00 42 983.0
20260502192655 8 333 8.0 9.7 0.00 0.00 0.00 41 983.0
20260502192155 8 318 4.8 9.7 0.00 0.00 0.00 44 983.0
20260502191655 8 299 3.2 9.7 0.00 0.00 0.00 41 983.0
20260502191156 8 263 6.4 12.9 0.00 0.00 0.00 41 983.0
20260502190655 8 358 8.0 12.9 0.00 0.00 0.00 40 984.0
20260502190156 8 268 6.4 12.9 0.00 0.00 0.00 40 983.0
20260502185655 8 300 4.8 6.4 0.00 0.00 0.00 42 983.0
20260502185155 8 302 3.2 12.9 0.00 0.00 0.00 41 983.0
20260502184655 8 284 9.7 12.9 0.00 0.00 0.00 40 983.0
20260502184155 8 288 6.4 12.9 0.00 0.00 0.00 40 983.0
20260502183655 8 358 6.4 11.3 0.00 0.00 0.00 42 983.0
20260502183156 8 347 9.7 16.1 0.00 0.00 0.00 41 983.0
20260502182654 8 272 3.2 12.9 0.00 0.00 0.00 43 983.0
20260502182155 8 286 6.4 12.9 0.00 0.00 0.00 41 983.0
20260502181655 8 1 6.4 9.7 0.00 0.00 0.00 40 983.0
20260502181155 9 217 9.7 14.5 0.00 0.00 0.00 38 983.0
20260502180655 10 230 6.4 12.9 0.00 0.00 0.00 39 983.0
20260502180155 9 280 4.8 12.9 0.00 0.00 0.00 49 983.0
20260502170155 10 8 9.7 12.9 0.00 0.00 0.00 39 984.0
20260502164156 7 270 9.7 12.9 0.00 0.00 0.00 44 984.0
20260502163655 8 217 6.4 14.5 0.00 0.00 0.00 44 984.0
20260502163155 8 264 3.2 6.4 0.00 0.00 0.00 44 984.0
20260502162655 8 332 6.4 14.5 0.00 0.00 0.00 41 984.0
20260502162156 8 323 4.8 6.4 0.00 0.00 0.00 47 984.0
20260502161655 7 307 3.2 6.4 0.00 0.00 0.00 49 984.0
20260502161155 7 273 3.2 11.3 0.00 0.00 0.00 44 984.0
20260502160655 8 301 11.3 24.1 0.00 0.00 0.00 45 984.0
20260502160155 7 25 6.4 14.5 0.00 0.00 0.00 46 984.0
20260502152156 6 308 3.2 4.8 0.00 0.00 0.00 48 984.0
20260502151655 7 347 4.8 9.7 0.00 0.00 0.00 45 984.0
20260502151156 7 273 6.4 9.7 0.00 0.00 0.00 46 984.0
20260502150655 7 5 9.7 12.9 0.00 0.00 0.00 45 984.0
20260502150155 8 11 6.4 14.5 0.00 0.00 0.00 45 984.0
20260502130655 5 304 3.2 11.3 0.00 0.00 0.00 60 984.0
20260502130155 5 8 8.0 11.3 0.00 0.00 0.00 60 984.0
20260502123655 5 303 4.8 4.8 0.00 0.00 0.00 63 984.0
20260502123156 5 17 3.2 9.7 0.00 0.00 0.00 64 984.0
20260502122655 5 7 6.4 9.7 0.00 0.00 0.00 65 984.0
20260502122155 4 3 4.8 11.3 0.00 0.00 0.00 65 984.0
20260502121656 4 324 3.2 4.8 0.00 0.00 0.00 66 984.0
20260502121155 4 329 4.8 6.4 0.00 0.00 0.00 66 984.0
20260502120655 4 233 1.6 6.4 0.00 0.00 0.00 67 984.0
20260502120155 4 320 6.4 9.7 0.00 0.00 0.00 67 984.0
20260502115655 3 21 3.2 4.8 0.00 0.00 0.00 67 984.0
20260502115155 3 291 4.8 4.8 0.00 0.00 0.00 69 984.0
20260502114657 3 20 3.2 4.8 0.00 0.00 0.00 70 984.0
20260502114155 3 317 6.4 6.4 0.00 0.00 0.00 70 984.0
20260502113655 3 326 1.6 4.8 0.00 0.00 0.00 72 984.0
20260502113155 2 292 4.8 6.4 0.00 0.00 0.00 73 984.0
20260502112655 2 271 1.6 4.8 0.00 0.00 0.00 74 984.0
20260502112155 2 259 1.6 1.6 0.00 0.00 0.00 76 984.0
20260502111655 1 285 3.2 4.8 0.00 0.00 0.00 77 984.0
20260502111155 1 350 1.6 1.6 0.00 0.00 0.00 79 983.0
20260502110655 0 267 3.2 3.2 0.00 0.00 0.00 80 983.0
20260502110155 0 279 1.6 3.2 0.00 0.00 0.00 82 983.0
20260502105655 0 247 0.0 1.6 0.00 0.00 0.00 82 983.0
20260502105155 0 272 0.0 1.6 0.00 0.00 0.00 82 984.0
20260502104655 0 246 0.0 0.0 0.00 0.00 0.00 81 983.0
20260502104155 0 269 0.0 1.6 0.00 0.00 0.00 80 984.0
20260502103656 0 271 1.6 3.2 0.00 0.00 0.00 80 983.0
20260502103155 0 277 1.6 3.2 0.00 0.00 0.00 80 984.0
20260502102655 0 251 0.0 1.6 0.00 0.00 0.00 79 983.0
20260502102155 0 294 1.6 3.2 0.00 0.00 0.00 78 984.0
20260502101656 0 255 1.6 3.2 0.00 0.00 0.00 78 983.0
20260502101155 0 239 0.0 1.6 0.00 0.00 0.00 77 983.0
20260502100655 1 283 1.6 1.6 0.00 0.00 0.00 77 983.0
20260502100155 1 269 1.6 4.8 0.00 0.00 0.00 77 983.0
20260502091155 1 251 1.6 1.6 0.00 0.00 0.00 72 983.0
20260502090655 2 209 0.0 4.8 0.00 0.00 0.00 72 983.0
20260502090155 2 255 1.6 3.2 0.00 0.00 0.00 71 983.0
20260502071155 3 290 1.6 3.2 0.00 0.00 0.00 66 983.0
20260502070655 3 334 0.0 1.6 0.00 0.00 0.00 67 982.0
20260502070155 3 26 0.0 1.6 0.00 0.00 0.00 66 983.0
20260502065655 3 315 0.0 4.8 0.00 0.00 0.00 66 983.0
20260502065156 3 299 0.0 1.6 0.00 0.00 0.00 66 983.0
20260502064655 3 334 3.2 6.4 0.00 0.00 0.00 65 983.0
20260502064155 3 9 0.0 3.2 0.00 0.00 0.00 66 983.0
20260502063655 3 319 0.0 1.6 0.00 0.00 0.00 65 983.0
20260502063155 4 354 1.6 3.2 0.00 0.00 0.00 66 983.0
20260502062655 4 8 3.2 4.8 0.00 0.00 0.00 65 983.0
20260502062155 4 10 3.2 3.2 0.00 0.00 0.00 65 983.0
20260502061655 4 38 1.6 3.2 0.00 0.00 0.00 65 983.0
20260502061156 4 21 3.2 6.4 0.00 0.00 0.00 65 983.0
20260502060655 4 344 3.2 11.3 0.00 0.00 0.00 65 983.0
20260502060155 4 23 3.2 6.4 0.00 0.00 0.00 69 983.0
20260502055655 4 7 3.2 4.8 0.00 0.00 0.00 70 983.0
20260502055155 4 355 0.0 1.6 0.00 0.00 0.00 73 983.0
20260502054655 4 356 3.2 3.2 0.00 0.00 0.00 73 983.0
20260502054155 4 6 1.6 1.6 0.00 0.00 0.00 73 983.0
20260502053655 4 17 0.0 1.6 0.00 0.00 0.00 72 983.0
20260502053155 4 8 1.6 3.2 0.00 0.00 0.00 72 983.0
20260502052655 4 54 1.6 1.6 0.00 0.00 0.00 71 983.0
20260502052155 4 32 1.6 4.8 0.00 0.00 0.00 71 983.0
20260502051656 4 17 4.8 4.8 0.00 0.00 0.00 71 983.0
20260502051154 4 9 3.2 3.2 0.00 0.00 0.00 71 983.0
20260502050655 4 48 1.6 9.7 0.00 0.00 0.00 70 983.0